When you browse on this site, cookies collect data to enhance your experience and personalize the content and advertising you see.
Visit our Privacy Policy to learn more. By continuing to use the site, you agree to this use of cookies and data.
  • în România
  • Lista ţărilor
  • Pe 7 zile
  • Temperatura apei
  • Meteo pe hartă
  • Widget-uri
  • user-avatar
    Intrare

    Meteo pe oră la Siedlce

    Astăzi, 7 Decembrie, Sâmbătă

    Timp Temperatura Precipitaţii Vânt Presiune Umiditate
    00:00 -3°C° 0 mm 6 m/s 744 mmHg 61%
    01:00 -2°C° 0 mm 5 m/s 743 mmHg 61%
    02:00 -3°C° 0 mm 6 m/s 743 mmHg 61%
    03:00 -3°C° 0 mm 6 m/s 742 mmHg 60%
    04:00 -3°C° 0 mm 6 m/s 742 mmHg 60%
    05:00 -3°C° 0 mm 6 m/s 741 mmHg 59%
    06:00 -3°C° 0 mm 6 m/s 741 mmHg 59%
    07:00 -3°C° 0 mm 6 m/s 741 mmHg 57%
    08:00 -2°C° 0 mm 7 m/s 741 mmHg 58%
    09:00 -1°C° 0 mm 7 m/s 741 mmHg 58%
    10:00 0°C° 0 mm 8 m/s 740 mmHg 58%
    11:00 0°C° 0 mm 7 m/s 740 mmHg 65%
    12:00 0°C° 0 mm 7 m/s 740 mmHg 72%
    13:00 +2°C° 0 mm 7 m/s 740 mmHg 79%
    14:00 +2°C° 0 mm 7 m/s 740 mmHg 82%
    15:00 +1°C° 0 mm 8 m/s 739 mmHg 85%
    16:00 +2°C° 0 mm 8 m/s 739 mmHg 88%
    17:00 +2°C° 0.2 mm 8 m/s 740 mmHg 88%
    18:00 +3°C° 0.2 mm 7 m/s 740 mmHg 89%
    19:00 +4°C° 0.2 mm 7 m/s 741 mmHg 90%
    20:00 +3°C° 0.1 mm 7 m/s 741 mmHg 91%
    21:00 +3°C° 0.1 mm 6 m/s 741 mmHg 91%
    22:00 +3°C° 0.1 mm 6 m/s 741 mmHg 92%
    23:00 +3°C° 0.3 mm 6 m/s 741 mmHg 91%

    Mâine, 8 Decembrie, Duminică

    Timp Temperatura Precipitaţii Vânt Presiune Umiditate
    00:00 +3°C° 0.3 mm 6 m/s 742 mmHg 91%
    01:00 +3°C° 0.3 mm 6 m/s 742 mmHg 90%
    02:00 +3°C° 0 mm 6 m/s 742 mmHg 90%
    03:00 +2°C° 0 mm 5 m/s 742 mmHg 91%
    04:00 +2°C° 0 mm 5 m/s 742 mmHg 91%
    05:00 +2°C° 0 mm 5 m/s 742 mmHg 91%
    06:00 +2°C° 0 mm 5 m/s 743 mmHg 91%
    07:00 +3°C° 0 mm 4 m/s 743 mmHg 91%
    08:00 +3°C° 0.1 mm 5 m/s 743 mmHg 89%
    09:00 +3°C° 0.1 mm 6 m/s 743 mmHg 87%
    10:00 +4°C° 0.1 mm 7 m/s 743 mmHg 85%
    11:00 +4°C° 0 mm 7 m/s 742 mmHg 81%
    12:00 +4°C° 0 mm 6 m/s 742 mmHg 78%
    13:00 +5°C° 0 mm 6 m/s 741 mmHg 75%
    14:00 +4°C° 0 mm 6 m/s 741 mmHg 75%
    15:00 +4°C° 0 mm 6 m/s 740 mmHg 76%
    16:00 +3°C° 0 mm 6 m/s 740 mmHg 76%
    17:00 +3°C° 0 mm 6 m/s 740 mmHg 76%
    18:00 +4°C° 0 mm 7 m/s 740 mmHg 76%
    19:00 +4°C° 0 mm 7 m/s 739 mmHg 76%
    20:00 +4°C° 0 mm 7 m/s 739 mmHg 77%
    21:00 +4°C° 0 mm 7 m/s 738 mmHg 78%
    22:00 +4°C° 0 mm 7 m/s 738 mmHg 79%
    23:00 +4°C° 0.4 mm 7 m/s 738 mmHg 82%

    Poimâine, 9 Decembrie, Luni

    Timp Temperatura Precipitaţii Vânt Presiune Umiditate
    00:00 +4°C° 0.4 mm 7 m/s 737 mmHg 85%
    01:00 +4°C° 0.4 mm 7 m/s 737 mmHg 88%
    02:00 +4°C° 0 mm 7 m/s 737 mmHg 87%
    03:00 +4°C° 0 mm 7 m/s 737 mmHg 87%
    04:00 +4°C° 0 mm 6 m/s 736 mmHg 87%
    05:00 +4°C° 0.5 mm 6 m/s 736 mmHg 88%
    06:00 +4°C° 0.5 mm 6 m/s 736 mmHg 89%
    07:00 +4°C° 0.5 mm 6 m/s 736 mmHg 90%
    08:00 +4°C° 0.6 mm 6 m/s 736 mmHg 89%
    09:00 +5°C° 0.6 mm 6 m/s 736 mmHg 87%
    10:00 +5°C° 0.6 mm 7 m/s 736 mmHg 85%
    11:00 +5°C° 0.1 mm 6 m/s 736 mmHg 82%
    12:00 +7°C° 0.1 mm 6 m/s 737 mmHg 79%
    13:00 +7°C° 0.1 mm 6 m/s 737 mmHg 76%
    14:00 +6°C° 0 mm 5 m/s 737 mmHg 77%
    15:00 +6°C° 0 mm 5 m/s 737 mmHg 78%
    16:00 +5°C° 0 mm 4 m/s 737 mmHg 79%
    17:00 +5°C° 0 mm 4 m/s 737 mmHg 78%
    18:00 +5°C° 0 mm 5 m/s 737 mmHg 77%
    19:00 +5°C° 0 mm 5 m/s 738 mmHg 76%
    20:00 +3°C° 0 mm 5 m/s 738 mmHg 77%
    21:00 +3°C° 0 mm 5 m/s 738 mmHg 77%
    22:00 +3°C° 0 mm 5 m/s 738 mmHg 78%
    23:00 +2°C° 0 mm 5 m/s 738 mmHg 79%

    10 Decembrie, Marţi

    Timp Temperatura Precipitaţii Vânt Presiune Umiditate
    00:00 +2°C° 0 mm 6 m/s 739 mmHg 80%
    01:00 +2°C° 0 mm 6 m/s 739 mmHg 81%
    02:00 +2°C° 0 mm 5 m/s 739 mmHg 82%
    03:00 +2°C° 0 mm 5 m/s 739 mmHg 83%
    04:00 +1°C° 0 mm 5 m/s 739 mmHg 83%
    05:00 +1°C° 0 mm 5 m/s 740 mmHg 83%
    06:00 +1°C° 0 mm 6 m/s 740 mmHg 84%
    07:00 +1°C° 0 mm 6 m/s 740 mmHg 84%
    08:00 +2°C° 0 mm 6 m/s 741 mmHg 83%
    09:00 +2°C° 0 mm 6 m/s 742 mmHg 83%
    10:00 +3°C° 0 mm 7 m/s 742 mmHg 83%
    11:00 +3°C° 0 mm 7 m/s 743 mmHg 79%
    12:00 +3°C° 0 mm 7 m/s 743 mmHg 74%
    13:00 +3°C° 0 mm 7 m/s 744 mmHg 70%
    14:00 +2°C° 0 mm 6 m/s 745 mmHg 75%
    15:00 +2°C° 0 mm 5 m/s 745 mmHg 80%
    16:00 +3°C° 0 mm 4 m/s 746 mmHg 85%
    17:00 +2°C° 0.1 mm 5 m/s 747 mmHg 82%
    18:00 +1°C° 0.1 mm 5 m/s 748 mmHg 80%
    19:00 +1°C° 0.1 mm 6 m/s 749 mmHg 78%
    20:00 0°C° 0 mm 5 m/s 750 mmHg 77%
    21:00 -1°C° 0 mm 4 m/s 750 mmHg 77%
    22:00 0°C° 0 mm 3 m/s 751 mmHg 76%
    23:00 -1°C° 0 mm 3 m/s 751 mmHg 77%

    11 Decembrie, Miercuri

    Timp Temperatura Precipitaţii Vânt Presiune Umiditate
    00:00 -1°C° 0 mm 2 m/s 752 mmHg 78%
    01:00 -2°C° 0 mm 2 m/s 752 mmHg 79%
    02:00 -2°C° 0 mm 2 m/s 752 mmHg 79%
    03:00 0°C° 0 mm 1 m/s 752 mmHg 79%
    04:00 0°C° 0 mm 1 m/s 753 mmHg 78%
    05:00 0°C° 0 mm 1 m/s 753 mmHg 77%
    06:00 -2°C° 0 mm 2 m/s 753 mmHg 75%
    07:00 -2°C° 0 mm 2 m/s 752 mmHg 74%
    08:00 -1°C° 0 mm 3 m/s 752 mmHg 72%
    09:00 -1°C° 0 mm 3 m/s 752 mmHg 70%
    10:00 -1°C° 0 mm 4 m/s 752 mmHg 68%
    11:00 -1°C° 0 mm 4 m/s 752 mmHg 69%
    12:00 0°C° 0 mm 4 m/s 751 mmHg 70%
    13:00 0°C° 0 mm 4 m/s 751 mmHg 71%
    14:00 0°C° 0 mm 4 m/s 750 mmHg 76%
    15:00 -1°C° 0 mm 4 m/s 750 mmHg 80%
    16:00 -1°C° 0 mm 4 m/s 750 mmHg 85%
    17:00 -2°C° 0 mm 4 m/s 749 mmHg 86%
    18:00 -2°C° 0 mm 4 m/s 749 mmHg 88%
    19:00 -2°C° 0 mm 4 m/s 749 mmHg 89%
    20:00 -2°C° 0 mm 4 m/s 749 mmHg 89%
    21:00 -2°C° 0 mm 4 m/s 748 mmHg 90%
    22:00 -2°C° 0 mm 4 m/s 748 mmHg 90%
    23:00 -2°C° 0 mm 4 m/s 748 mmHg 91%

    12 Decembrie, Joi

    Timp Temperatura Precipitaţii Vânt Presiune Umiditate
    00:00 -2°C° 0 mm 4 m/s 747 mmHg 92%
    01:00 -2°C° 0 mm 4 m/s 747 mmHg 93%
    02:00 -2°C° 0 mm 4 m/s 746 mmHg 93%
    03:00 -2°C° 0 mm 4 m/s 746 mmHg 93%
    04:00 -2°C° 0 mm 4 m/s 746 mmHg 93%
    05:00 -2°C° 0 mm 4 m/s 745 mmHg 93%
    06:00 -2°C° 0 mm 4 m/s 745 mmHg 92%
    07:00 -2°C° 0 mm 4 m/s 745 mmHg 92%
    08:00 -1°C° 0 mm 4 m/s 745 mmHg 89%
    09:00 -1°C° 0 mm 4 m/s 745 mmHg 86%
    10:00 0°C° 0 mm 4 m/s 745 mmHg 83%
    11:00 0°C° 0 mm 4 m/s 745 mmHg 81%
    12:00 +2°C° 0 mm 3 m/s 745 mmHg 80%
    13:00 +2°C° 0 mm 3 m/s 744 mmHg 79%
    14:00 +2°C° 0 mm 3 m/s 744 mmHg 82%
    15:00 +2°C° 0 mm 2 m/s 744 mmHg 85%
    16:00 +2°C° 0 mm 2 m/s 744 mmHg 87%
    17:00 +2°C° 0 mm 2 m/s 744 mmHg 89%
    18:00 +1°C° 0 mm 2 m/s 744 mmHg 90%
    19:00 +1°C° 0 mm 2 m/s 744 mmHg 91%
    20:00 +1°C° 0 mm 2 m/s 744 mmHg 91%
    21:00 +1°C° 0 mm 2 m/s 744 mmHg 91%
    22:00 +1°C° 0 mm 2 m/s 744 mmHg 90%
    23:00 +1°C° 0.1 mm 2 m/s 743 mmHg 91%
    Arată mai mult